Content
SEND FEEDBACK

Daily
Averages
Monthly
Summary
United States of America

SOUTH LAKE TAHOE, CALIFORNIA


Home > North America > United States > California
Elevation: 1908 meters     Latitude: 38 53N     Longitude: 119 59W

WEATHER
 
SELECT A DAY
Number of Records: 174,516;   Date Range: 1/1/95 - 8/28/14
 
SHARE

PRINT THIS DATA

[ ← Previous Day ]
WEATHER ALMANAC - 31 JANUARY, 2013
[ Next Day → ]
[ °F ]   °C
Weather ElementAverageHighLow
Temperature-0.3 °C9.4 °C (11:53 am)-8.3 °C (7:53 am)
Dewpoint-6.9 °C-1.7 °C (1:53 pm)-11.1 °C (7:53 am)
Humidity64.3 %85 % (3:53 am)33 % (11:53 am)
Barometer1028.1 hPa1032.2 hPa (7:53 am)1025.1 hPa (2:53 pm)
Wind Speed3.1 km/h14.8 km/h (12:53 pm)
Weather ElementAverage
Visibility16.1 km
Wind DirectionNNE (38.6 °)

Weather ElementTotal
Precipitation---
Heating Degree Days17.8 (Base 18.3)
Averaged from 22 records on 31 January, 2013
WEATHER CONDITIONS BREAKOUT
WIND DIRECTION BREAKOUT
WEATHER BY HOUR - 31 JANUARY, 2013
[ °F ]   °C
Local TimeTemperatureDewpointHumidityBarometerVisibilityWind DirectionWind SpeedGust SpeedPrecipitationEventsConditions
1:53 AM-5.6 °C-8.3 °C82 %1028.8 hPa16.1 kmCalmClear
2:53 AM-6.1 °C-8.9 °C81 %1028.8 hPa16.1 kmCalmClear
3:53 AM-6.7 °C-8.9 °C85 %1028.8 hPa16.1 kmCalmClear
4:53 AM-7.2 °C-10 °C81 %1029.8 hPa16.1 kmSouth (190°)5.6 km/hClear
5:53 AM-7.8 °C-10 °C84 %1030.5 hPa16.1 kmCalmClear
6:53 AM-7.2 °C-10 °C81 %1030.5 hPa16.1 kmCalmClear
7:53 AM-8.3 °C-11.1 °C81 %1032.2 hPa16.1 kmSouth (190°)9.3 km/hClear
8:53 AM-3.9 °C-7.8 °C75 %1030.8 hPa16.1 kmCalmClear
9:53 AM0.6 °C-7.2 °C56 %1029.8 hPa16.1 kmCalmClear
10:53 AM6.7 °C-5.6 °C42 %1028.1 hPa16.1 kmCalmClear
11:53 AM9.4 °C-6.1 °C33 %1026.8 hPa16.1 kmCalmClear
12:53 PM7.2 °C-2.8 °C49 %1026.1 hPa16.1 kmNNE (30°)14.8 km/hClear
1:53 PM7.2 °C-1.7 °C53 %1025.7 hPa16.1 kmNE (40°)14.8 km/hClear
2:53 PM8.9 °C-2.2 °C46 %1025.1 hPa16.1 kmNNE (30°)11.1 km/hClear
3:53 PM7.8 °C-3.9 °C44 %1025.1 hPa16.1 kmCalmClear
4:53 PM6.1 °C-6.7 °C40 %1025.4 hPa16.1 kmCalmClear
5:53 PM2.2 °C-5 °C59 %1026.8 hPa16.1 kmCalmClear
6:53 PM0.6 °C-5.6 °C64 %1027.8 hPa16.1 kmCalmClear
7:53 PM-1.1 °C-6.1 °C69 %1028.8 hPa16.1 kmSSW (200°)5.6 km/hClear
8:53 PM-2.8 °C-7.2 °C72 %1028.1 hPa16.1 kmSouth (170°)7.4 km/hClear
9:53 PM-2.8 °C-8.3 °C66 %1026.8 hPa16.1 kmCalmClear
10:53 PM-3.9 °C-8.3 °C72 %1025.7 hPa16.1 kmCalmClear
Hourly data recorded from KTVL, located 0 kilometers away from South Lake Tahoe, California







STORIES FROM OUR PARTNERS